Weather in Zavolzhskiy

Russia / Tver Oblast     56°53′25″N   35°45′12″E
temp.,
°C
wind,
m/s
gust,
m/s
humid.,
%
clouds,
%
prec.,
mm/h
press.,
hPa
HPBL,
m
28 july, wed
wed2800:00+18ssw0165100 0.0 101711
03:00+16sse227068 0.0 101712
06:00+17s2377100 0.1 101582
09:00+21s3478100 0.8 1014366
12:00+21ssw5768100 0.0 1014620
15:00+18s2794100 1.1 1013300
18:00+19s3683100 0.4 1011756
21:00+17s1192100 0.5 101019
29 july, thu
thu2900:00+15ese119898 0.0 100918
03:00+14nw1198100 0.0 100812
06:00+15w249612 0.0 1007124
09:00+20w24725 0.0 1007596
12:00+26wnw3552100 0.0 10051485
15:00+25w5752100 0.1 10051335
18:00+22w376399 0.0 1004447
21:00+18wsw228397 0.0 100523
30 july, fri
fri3000:00+16wsw38968 0.3 1005159
03:00+16wsw259781 0.3 100495
06:00+16wsw249476 0.0 100596
09:00+21wsw237215 0.0 1005459
12:00+24wsw35575 0.6 1004982
15:00+26w474082 0.6 10032447
18:00+23w4947100 0.0 10041222
21:00+18sw2365100 0.0 100455
31 july, sat
sat3100:00+18sw3961100 0.0 1004291
03:00+18sw3758100 0.0 1003259
06:00+16sw412795 0.1 1003425
09:00+21wsw612495 0.1 10021567
12:00+21w61054100 0.0 10031437
15:00+23w51147100 0.1 10042115
18:00+24wnw5940100 0.0 10042162
21:00+20wsw39635 0.0 1005290
1 august, sun
sun100:00+16ssw2480100 0.0 100672
03:00+17s2677100 0.0 1006139
06:00+15wsw4896100 1.9 1006293
09:00+16sse2798100 8.4 1004404
12:00+17wsw2899100 7.9 1004555
15:00+23w366357 8.1 10041273
18:00+23wsw366016 0.3 1005905
21:00+19wnw2373100 0.4 100648